Location: Shepherdstown, WV
(39.4326°N, 77.8042°W)
Time: 05:27:34
(UTC-04:00)

Vanguard 1 - Pass Details

Date: 01 August 2021
Orbit: 652 x 3831 km, 34.3° (Epoch: 24 September)

Event Time Altitude Azimuth Distance (km) Brightness Sun altitude
Rises 11:12:50 0° 231° (SW) 2,955 12.4 55.5°
Reaches altitude 10° 11:15:07 10° 220° (SW) 2,096 11.8 55.8°
Maximum altitude 11:19:14 32° 156° (SSE) 1,310 11.8 56.5°
Drops below altitude 10° 11:24:45 10° 95° (E) 2,847 13.1 57.4°
Sets 11:28:25 0° 86° (E) 4,233 13.7 58.0°
